Time,TemperatureF,DewpointF,PressureIn,WindDirection,WindDirectionDegrees,WindSpeedMPH,WindSpeedGustMPH,Humidity,HourlyPrecipIn,Conditions,Clouds,dailyrainin,SoftwareType,DateUTC
2013-03-26 00:00:00,34.0,26.5,30.14,North,0,0.0,0.0,74,0.00,,,0.00,WUHU216HW,2013-03-26 04:00:00,
2013-03-26 00:05:00,34.0,26.5,30.15,North,0,0.0,0.0,74,0.00,,,0.00,WUHU216HW,2013-03-26 04:05:00,
2013-03-26 00:10:00,34.0,26.5,30.15,North,0,0.0,0.0,74,0.00,,,0.00,WUHU216HW,2013-03-26 04:10:00,
2013-03-26 00:36:00,33.5,26.6,30.15,North,0,0.0,0.0,76,0.00,,,0.00,WUHU216HW,2013-03-26 04:36:00,
2013-03-26 00:41:00,33.5,26.6,30.15,North,0,0.0,0.0,76,0.00,,,0.00,WUHU216HW,2013-03-26 04:41:00,
2013-03-26 00:46:00,33.5,26.6,30.15,North,0,0.0,0.0,76,0.00,,,0.00,WUHU216HW,2013-03-26 04:46:00,
2013-03-26 00:51:00,33.5,26.6,30.15,North,0,0.0,0.0,76,0.00,,,0.00,WUHU216HW,2013-03-26 04:51:00,
2013-03-26 00:56:00,33.5,26.6,30.15,North,0,0.0,0.0,76,0.00,,,0.00,WUHU216HW,2013-03-26 04:56:00,
2013-03-26 01:01:00,33.5,26.6,30.14,North,0,0.0,0.0,76,0.00,,,0.00,WUHU216HW,2013-03-26 05:01:00,
2013-03-26 01:06:00,33.5,26.6,30.14,North,0,0.0,0.0,76,0.00,,,0.00,WUHU216HW,2013-03-26 05:06:00,
2013-03-26 01:11:00,33.5,26.6,30.14,North,0,0.0,0.0,76,0.00,,,0.00,WUHU216HW,2013-03-26 05:11:00,
2013-03-26 01:16:00,33.5,26.6,30.14,North,0,0.0,0.0,76,0.00,,,0.00,WUHU216HW,2013-03-26 05:16:00,
2013-03-26 01:21:00,33.3,26.5,30.13,North,0,0.0,0.0,76,0.00,,,0.00,WUHU216HW,2013-03-26 05:21:00,
2013-03-26 01:26:00,33.3,26.5,30.13,North,0,0.0,0.0,76,0.00,,,0.00,WUHU216HW,2013-03-26 05:26:00,
2013-03-26 01:31:00,33.3,26.5,30.13,North,0,0.0,0.0,76,0.00,,,0.00,WUHU216HW,2013-03-26 05:31:00,
2013-03-26 02:01:00,33.1,27.0,30.14,North,0,0.0,0.0,78,0.00,,,0.00,WUHU216HW,2013-03-26 06:01:00,
2013-03-26 02:06:00,33.1,27.3,30.14,North,0,0.0,0.0,79,0.00,,,0.00,WUHU216HW,2013-03-26 06:06:00,
2013-03-26 02:11:00,33.1,27.3,30.14,North,0,0.0,0.0,79,0.00,,,0.00,WUHU216HW,2013-03-26 06:11:00,
2013-03-26 02:16:00,33.1,27.3,30.14,North,0,0.0,0.0,79,0.00,,,0.00,WUHU216HW,2013-03-26 06:16:00,
2013-03-26 02:21:00,32.9,27.1,30.14,North,0,0.0,0.0,79,0.00,,,0.00,WUHU216HW,2013-03-26 06:21:00,
2013-03-26 02:26:00,33.1,27.6,30.14,North,0,0.0,0.0,80,0.00,,,0.00,WUHU216HW,2013-03-26 06:26:00,
2013-03-26 02:31:00,33.1,27.6,30.15,North,0,0.0,0.0,80,0.00,,,0.00,WUHU216HW,2013-03-26 06:31:00,
2013-03-26 02:36:00,32.9,27.5,30.15,North,0,0.0,0.0,80,0.00,,,0.00,WUHU216HW,2013-03-26 06:36:00,
2013-03-26 02:41:00,32.9,27.5,30.15,North,0,0.0,0.0,80,0.00,,,0.00,WUHU216HW,2013-03-26 06:41:00,
2013-03-26 02:46:00,32.9,27.5,30.15,North,0,0.0,0.0,80,0.00,,,0.00,WUHU216HW,2013-03-26 06:46:00,
2013-03-26 02:51:00,32.9,27.5,30.15,North,0,0.0,0.0,80,0.00,,,0.00,WUHU216HW,2013-03-26 06:51:00,
2013-03-26 03:05:00,32.8,27.5,30.15,North,0,0.0,0.0,81,0.00,,,0.00,WUHU216HW,2013-03-26 07:05:00,
2013-03-26 03:10:00,32.8,27.5,30.15,North,0,0.0,0.0,81,0.00,,,0.00,WUHU216HW,2013-03-26 07:10:00,
2013-03-26 03:15:00,32.8,27.5,30.15,North,0,0.0,0.0,81,0.00,,,0.00,WUHU216HW,2013-03-26 07:15:00,